Fsl New York — 9VBQ8 — position and weather

sailwx.info

Track history (hours):
 
Tides and Currents Weather Stations Pressure Air Temp Water Temp Dewpoint Dewpoint Depression Visibility Wind Speed Wind Dir Waves Ship Positions

Fsl New York

Last reported at 2014-Jul-25 20:33 UTC. Time now 2014-Jul-25 20:43 UTC.
Position N 29°34' W 094°56'.

Length 138 m; draft 6 m.

Type: Tanker. MMSI: 565174000.

Date/timePositionNaut miles runAvg speedWind from/ knotsBaromVisibWave heightAir tempDewpointWater temp
2014-Jul-25 20:33N 29°34' W 094°56'11 0.3
2014-Jul-24 10:33N 29°24' W 094°49'1211.8
2014-Jul-24 09:33N 29°35' W 094°56'5 5.4
2014-Jul-24 08:33N 29°37' W 095°02'0 0.0
2014-Jul-24 07:28N 29°37' W 095°02'0 0.0
2014-Jul-24 06:31N 29°37' W 095°02'0 0.0
2014-Jul-24 05:31N 29°37' W 095°02'0 0.0
2014-Jul-24 04:31N 29°37' W 095°02'0 0.0
2014-Jul-24 03:31N 29°37' W 095°02'0 0.0
2014-Jul-24 02:31N 29°37' W 095°02'0 0.0
2014-Jul-24 01:28N 29°37' W 095°02'0 0.0
2014-Jul-24 00:31N 29°37' W 095°02'0 0.0
2014-Jul-23 23:28N 29°37' W 095°02'0 0.0
2014-Jul-23 22:31N 29°37' W 095°02'0 0.0
2014-Jul-23 21:31N 29°37' W 095°02'0 0.0
2014-Jul-23 20:31N 29°37' W 095°02'0 0.0
2014-Jul-23 19:31N 29°37' W 095°02'0 0.0
2014-Jul-23 18:33N 29°37' W 095°02'5 5.3
2014-Jul-23 17:33N 29°35' W 094°56'  
2014-Jul-20 08:30N 29°60' W 090°26'1111.7
2014-Jul-20 07:32N 30°03' W 090°39'1310.4
2014-Jul-20 06:17N 30°04' W 090°53'1 0.0
2014-Jul-18 21:19N 30°04' W 090°52'5 7.0
2014-Jul-18 20:33N 29°60' W 090°48'  
Track history (hours):
 
Tides and Currents Weather Stations Pressure Air Temp Water Temp Dewpoint Dewpoint Depression Visibility Wind Speed Wind Dir Waves Ship Positions

Fsl New York

Last reported at 2014-Jul-25 20:33 UTC. Time now 2014-Jul-25 20:43 UTC.
Position N 29°34' W 094°56'.

Length 138 m; draft 6 m.

Type: Tanker. MMSI: 565174000.

Date/timePositionNaut miles runAvg speedWind from/ knotsBaromVisibWave heightAir tempDewpointWater temp
2014-Jul-25 20:33N 29°34' W 094°56'11 0.3
2014-Jul-24 10:33N 29°24' W 094°49'1211.8
2014-Jul-24 09:33N 29°35' W 094°56'5 5.4
2014-Jul-24 08:33N 29°37' W 095°02'0 0.0
2014-Jul-24 07:28N 29°37' W 095°02'0 0.0
2014-Jul-24 06:31N 29°37' W 095°02'0 0.0
2014-Jul-24 05:31N 29°37' W 095°02'0 0.0
2014-Jul-24 04:31N 29°37' W 095°02'0 0.0
2014-Jul-24 03:31N 29°37' W 095°02'0 0.0
2014-Jul-24 02:31N 29°37' W 095°02'0 0.0
2014-Jul-24 01:28N 29°37' W 095°02'0 0.0
2014-Jul-24 00:31N 29°37' W 095°02'0 0.0
2014-Jul-23 23:28N 29°37' W 095°02'0 0.0
2014-Jul-23 22:31N 29°37' W 095°02'0 0.0
2014-Jul-23 21:31N 29°37' W 095°02'0 0.0
2014-Jul-23 20:31N 29°37' W 095°02'0 0.0
2014-Jul-23 19:31N 29°37' W 095°02'0 0.0
2014-Jul-23 18:33N 29°37' W 095°02'5 5.3
2014-Jul-23 17:33N 29°35' W 094°56'  
2014-Jul-20 08:30N 29°60' W 090°26'1111.7
2014-Jul-20 07:32N 30°03' W 090°39'1310.4
2014-Jul-20 06:17N 30°04' W 090°53'1 0.0
2014-Jul-18 21:19N 30°04' W 090°52'5 7.0
2014-Jul-18 20:33N 29°60' W 090°48'  

Dump ship's entire track history